Location: Brachbach
(49.1847°N, 9.7240°E)
Time: 04:49:58
(UTC+00:00)

Cosmos 2219 Rocket - Pass Details

Date: 15 August 2024
Orbit: 826 x 846 km, 71.0° (Epoch: 16 September)

Event Time Altitude Azimuth Distance (km) Brightness Sun altitude
Exits shadow 02:11:34 - 278° (W) 2,646 4.5 -17.0°
Reaches altitude 10° 02:12:16 10° 284° (WNW) 2,473 4.4 -17.0°
Maximum altitude 02:15:58 17° 325° (NW) 2,003 4.3 -16.6°
Drops below altitude 10° 02:19:40 10° 6° (N) 2,481 5.4 -16.1°
Sets 02:23:02 0° 26° (NNE) 3,419 6.8 -15.8°
